Stations météo

réclame
Mon MeteoGroup
Torino/Caselle, Italie (16059): Température de l'air & dewpoint: 14.10.2018 19:00:00 - 20.10.2018 19:00:00 (CEST)Torino/Caselle, Italie (16059): Vitesse du vent: 14.10.2018 19:00:00 - 20.10.2018 19:00:00 (CEST)Torino/Caselle, Italie (16059): Direction du vent: 14.10.2018 19:00:00 - 20.10.2018 19:00:00 (CEST)Torino/Caselle, Italie (16059): reduced air pressure: 14.10.2018 19:00:00 - 20.10.2018 19:00:00 (CEST)Torino/Caselle, Italie (16059): visibility: 14.10.2018 19:00:00 - 20.10.2018 19:00:00 (CEST)Torino/Caselle, Italie (16059): Quantités de précipitations: 14.10.2018 19:00:00 - 20.10.2018 19:00:00 (CEST)
Date & Time tt [°C] td [°C] ff [km/h] ff [knt] dd ppp [hPa] vv [km] rr [mm]
20.10.2018 19:00:00 19,0 14,0 2 1 ENE - 9 -
20.10.2018 18:00:00 22,0 14,0 4 2 - - 8 -
20.10.2018 17:00:00 22,0 12,9 8 4 S 1022,5 9 0,0
20.10.2018 16:00:00 23,0 13,0 4 2 - - 10 -
20.10.2018 15:00:00 22,0 13,0 5 3 S - 10 -
20.10.2018 14:00:00 21,1 12,9 8 4 S 1024,2 10 -
20.10.2018 13:00:00 20,0 14,0 4 2 - - 10 -
20.10.2018 12:00:00 18,0 14,0 4 2 - - 10 -
20.10.2018 11:00:00 16,9 13,9 5 3 SW 1024,9 10 0,0
20.10.2018 10:00:00 16,0 14,0 4 2 - - 10 -
20.10.2018 09:00:00 15,0 14,0 2 1 - - 10 -
20.10.2018 08:00:00 14,5 13,4 4 2 - 1023,2 10 -
20.10.2018 07:00:00 14,0 13,0 4 2 - - 8 -
20.10.2018 06:00:00 14,0 12,0 2 1 - - 10 -
20.10.2018 05:00:00 13,3 12,1 2 1 S 1022,3 10 0,0
20.10.2018 04:00:00 13,0 12,0 2 1 - - 10 -
20.10.2018 03:00:00 13,0 12,0 4 2 NNW - 10 -
20.10.2018 02:00:00 13,8 12,6 4 2 S 1022,4 10 -
20.10.2018 01:00:00 16,0 13,0 8 4 NW - 10 -
20.10.2018 00:00:00 15,0 12,0 4 2 WNW - 10 -
19.10.2018 23:00:00 14,0 13,0 4 2 SSE 1021,3 10 0,0
19.10.2018 22:00:00 17,0 13,0 9 5 NNW - 10 -
19.10.2018 21:00:00 17,0 14,0 9 5 NNW - 10 -
19.10.2018 20:00:00 18,3 13,9 8 4 NW 1019,6 10 -
19.10.2018 19:00:00 20,0 13,0 4 2 - - 10 -
19.10.2018 18:00:00 22,0 13,0 2 1 - - 10 -
19.10.2018 17:00:00 21,9 14,2 5 3 ESE 1018,3 10 0,0
19.10.2018 16:00:00 23,0 13,0 2 1 - - 10 -
19.10.2018 15:00:00 22,0 12,0 4 2 - - 10 -
19.10.2018 14:00:00 22,1 12,5 4 2 - 1019,1 10 -
19.10.2018 13:00:00 21,0 12,0 4 2 - - 10 -
19.10.2018 12:00:00 20,0 13,0 8 4 SSE - 10 -
19.10.2018 11:00:00 18,5 12,5 4 2 - 1019,6 10 0,0
19.10.2018 10:00:00 15,0 12,0 5 3 WSW - 10 -
19.10.2018 09:00:00 13,0 11,0 4 2 - - 10 -
19.10.2018 08:00:00 12,2 10,1 5 3 NW 1019,1 10 -
19.10.2018 07:00:00 13,0 10,0 9 5 WNW - 10 -
19.10.2018 06:00:00 13,0 11,0 5 3 WNW - 10 -
19.10.2018 05:00:00 12,7 10,9 2 1 - 1019,1 10 0,0
19.10.2018 04:00:00 - - - - - - - -
19.10.2018 03:00:00 13,0 11,0 5 3 WSW - 10 -
19.10.2018 02:00:00 13,8 12,1 2 1 - 1018,5 10 -
19.10.2018 01:00:00 14,0 12,0 8 4 W - 10 -
19.10.2018 00:00:00 14,0 13,0 4 2 SSW - 10 -
18.10.2018 23:00:00 13,7 12,7 4 2 - 1017,7 10 0,0
18.10.2018 22:00:00 17,0 13,0 8 4 NNW - 10 -
18.10.2018 21:00:00 17,0 14,0 5 3 WNW - 10 -
18.10.2018 20:00:00 17,9 13,2 8 4 WSW 1017,0 10 -
18.10.2018 19:00:00 20,0 13,0 8 4 SW - 10 -
18.10.2018 18:00:00 22,0 12,0 4 2 - - 10 -
18.10.2018 17:00:00 21,7 12,0 5 3 WSW 1016,3 10 0,0
18.10.2018 16:00:00 22,0 13,0 5 3 - - 10 -
18.10.2018 15:00:00 21,0 14,0 9 5 SSW - 8 -
18.10.2018 14:00:00 21,0 12,0 5 3 S - 8 -
18.10.2018 13:00:00 19,0 13,0 9 5 ESE - 10 -
18.10.2018 12:00:00 19,0 13,0 5 3 SSE - 10 -
18.10.2018 11:00:00 17,6 12,7 2 1 - 1018,6 10 0,0
18.10.2018 10:00:00 13,0 12,0 2 1 - - 10 -
18.10.2018 09:00:00 13,0 11,0 4 2 - - 8 -
18.10.2018 08:00:00 11,9 10,7 4 2 NW 1017,8 10 -
18.10.2018 07:00:00 12,0 11,0 5 3 WNW - 8 -
18.10.2018 06:00:00 13,0 12,0 5 3 W - 8 -
18.10.2018 05:00:00 12,7 12,2 4 2 SSW 1018,0 6 0,0
18.10.2018 04:00:00 14,0 12,0 4 2 WNW - 4,0 -
18.10.2018 03:00:00 14,0 13,0 5 3 WNW - 8 -
18.10.2018 02:00:00 14,9 14,2 5 3 NW 1019,1 3,5 -
18.10.2018 01:00:00 15,0 15,0 5 3 WSW - 3,0 -
18.10.2018 00:00:00 16,0 15,0 2 1 S - 4,0 -
17.10.2018 23:00:00 15,7 14,8 5 3 SW 1019,7 5 0,0
17.10.2018 22:00:00 16,0 15,0 9 5 SSW - 5 -
17.10.2018 21:00:00 17,0 15,0 9 5 SSW - 6 -
17.10.2018 20:00:00 17,3 14,4 4 2 - 1019,1 5 -
17.10.2018 19:00:00 18,0 14,0 8 4 SSW - 6 -
17.10.2018 18:00:00 19,0 13,0 2 1 - - 6 -
17.10.2018 17:00:00 18,7 13,7 4 2 ENE 1018,7 6 0,0
17.10.2018 16:00:00 19,0 13,0 4 2 - - 6 -
17.10.2018 15:00:00 19,0 13,0 4 2 - - 7 -
17.10.2018 14:00:00 18,2 12,9 2 1 - 1019,5 6 -
17.10.2018 13:00:00 17,0 12,0 5 3 ESE - 7 -
17.10.2018 12:00:00 17,0 13,0 4 2 - - 7 -
17.10.2018 11:00:00 16,2 12,5 0 0 N 1020,7 7 0,0
17.10.2018 10:00:00 15,0 13,0 2 1 - - 5 -
17.10.2018 09:00:00 14,0 14,0 2 1 - - 9 -
17.10.2018 08:00:00 14,2 12,7 4 2 - 1020,4 9 -
17.10.2018 07:00:00 15,0 13,0 4 2 N - 9 -
17.10.2018 06:00:00 15,0 13,0 4 2 NNW - 8 -
17.10.2018 05:00:00 14,9 12,8 5 3 WNW 1020,6 8 0,0
17.10.2018 04:00:00 15,0 13,0 8 4 N - 9 -
17.10.2018 03:00:00 15,0 13,0 4 2 ENE - 8 -
17.10.2018 02:00:00 15,0 13,0 2 1 - 1021,2 6 -
17.10.2018 01:00:00 15,0 13,0 2 1 - - 7 -
17.10.2018 00:00:00 16,0 13,0 4 2 WNW - 7 -
16.10.2018 23:00:00 16,5 13,2 5 3 W 1021,9 8 0,0
16.10.2018 22:00:00 17,0 14,0 5 3 WSW - 8 -
16.10.2018 21:00:00 17,0 14,0 5 3 W - 8 -
16.10.2018 20:00:00 17,4 14,0 8 4 SW 1021,8 8 -
16.10.2018 19:00:00 18,0 13,0 2 1 S - 8 -
16.10.2018 18:00:00 19,0 12,0 2 1 E - 10 -
16.10.2018 17:00:00 19,2 12,1 2 1 - 1021,2 10 0,0
16.10.2018 16:00:00 19,0 12,0 4 2 - - 10 -
16.10.2018 15:00:00 19,0 13,0 4 2 - - 6 -
16.10.2018 14:00:00 18,9 13,0 5 3 WSW 1021,7 6 -
16.10.2018 13:00:00 18,0 14,0 4 2 - - 6 -
16.10.2018 12:00:00 17,0 14,0 5 3 WNW - 5 -
16.10.2018 11:00:00 15,3 13,9 8 4 WNW 1022,2 3,5 0,0
16.10.2018 10:00:00 15,0 14,0 5 3 NNW - 4,5 -
16.10.2018 09:00:00 15,0 13,0 4 2 NE - 5 -
16.10.2018 08:00:00 14,6 12,5 4 2 N 1021,3 7 -
16.10.2018 07:00:00 15,0 12,0 4 2 N - 8 -
16.10.2018 06:00:00 15,0 12,0 5 3 NW - 8 -
16.10.2018 05:00:00 15,5 12,0 9 5 NNW 1020,7 8 0,0
16.10.2018 04:00:00 15,0 12,0 8 4 N - 8 -
16.10.2018 03:00:00 15,0 13,0 5 3 NNE - 8 -
16.10.2018 02:00:00 14,5 12,7 2 1 - 1021,1 8 -
16.10.2018 01:00:00 15,0 12,0 2 1 W - 8 -
16.10.2018 00:00:00 16,0 12,0 8 4 NNW - 8 -
15.10.2018 23:00:00 16,6 11,6 9 5 NNW 1021,1 8 0,0
15.10.2018 22:00:00 - - - - - - - -
15.10.2018 21:00:00 16,0 13,0 5 3 NNW - 8 -
15.10.2018 20:00:00 16,6 12,6 5 3 WNW 1020,5 8 -
15.10.2018 19:00:00 18,0 12,0 4 2 N - 9 -
15.10.2018 18:00:00 18,0 12,0 5 3 ENE - 10 -
15.10.2018 17:00:00 18,8 11,9 8 4 E 1019,2 10 0,0
15.10.2018 16:00:00 19,0 11,0 5 3 E - 10 -
15.10.2018 15:00:00 19,0 11,0 9 5 NNE - 8 -
15.10.2018 14:00:00 19,7 11,2 9 5 N 1019,7 8 -
15.10.2018 13:00:00 19,0 12,0 5 3 NNE - 8 -
15.10.2018 12:00:00 18,0 12,0 9 5 ENE - 7 -
15.10.2018 11:00:00 17,4 12,2 8 4 NE 1020,2 8 0,0
15.10.2018 10:00:00 15,0 13,0 11 6 NNW - 10 -
15.10.2018 09:00:00 15,0 12,0 13 7 NNW - 10 -
15.10.2018 08:00:00 13,9 12,7 8 4 NW 1019,0 10 -
15.10.2018 07:00:00 13,0 12,0 9 5 W - 10 -
15.10.2018 06:00:00 14,0 11,0 8 4 WSW - 10 -
15.10.2018 05:00:00 13,0 11,0 5 3 W - 10 -
15.10.2018 04:00:00 12,0 11,0 4 2 - - 10 -
15.10.2018 03:00:00 14,0 10,0 5 3 NW - 10 -
15.10.2018 02:00:00 13,9 10,1 9 5 NW 1019,4 - -
15.10.2018 01:00:00 12,0 10,0 5 3 SE - 10 -
15.10.2018 00:00:00 13,0 10,0 4 2 - - 10 -
14.10.2018 23:00:00 13,8 10,6 5 3 NW 1020,0 10 0,0
14.10.2018 22:00:00 14,0 11,0 11 6 WNW - 10 -
14.10.2018 21:00:00 15,0 11,0 11 6 WNW - 10 -
14.10.2018 20:00:00 16,0 11,5 9 5 WNW 1019,4 10 -
14.10.2018 19:00:00 18,0 11,0 4 2 ENE - 10 -

tt = Température de l'air
td = dewpoint
ff = Vitesse du vent
dd = Direction du vent
ppp = reduced air pressure
vv = visibility
rr = Quantités de précipitations

stations d'obs. à proximité